WWW216 LGAV-LGRP

Flight info

Callsign WWW216
Flight time 1h 3m
Altitude 27000
Route KEA1N KEA UL995 CODIC CODI2D
Aircraft B736/M-VGDW/C

Departure

Time 2026-02-19 13:58
Airport Athens Eleftherios Venizelos International Airport (LGAV)

Arrival

Time 2026-02-19 15:01
Airport Rhodes International Airport "Diagoras" (LGRP)
Time Latitude Longitude Altitude Speed Heading
2026-02-19 13:19 37.95087 23.96349 301 ft 0 kts 34°
2026-02-19 13:53 37.95096 23.96361 300 ft 3 kts 57°
2026-02-19 13:53 37.95104 23.96392 301 ft 4 kts 77°
2026-02-19 13:53 37.95102 23.96422 300 ft 3 kts 104°
2026-02-19 13:54 37.95092 23.96449 301 ft 3 kts 118°
2026-02-19 13:54 37.95084 23.96477 300 ft 3 kts 95°
2026-02-19 13:54 37.95095 23.96506 301 ft 4 kts 48°
2026-02-19 13:54 37.95126 23.96541 304 ft 8 kts 39°
2026-02-19 13:55 37.95183 23.96596 303 ft 13 kts 37°
2026-02-19 13:55 37.95230 23.96666 301 ft 9 kts 85°
2026-02-19 13:55 37.95214 23.96743 301 ft 9 kts 82°
2026-02-19 13:55 37.95254 23.96802 302 ft 9 kts 38°
2026-02-19 13:56 37.95297 23.96855 302 ft 9 kts 66°
2026-02-19 13:56 37.95247 23.96984 307 ft 8 kts 126°
2026-02-19 13:56 37.95205 23.97025 309 ft 8 kts 178°
2026-02-19 13:57 37.95179 23.97009 309 ft 0 kts 217°
2026-02-19 13:58 37.95090 23.96925 309 ft 52 kts 217°
2026-02-19 13:58 37.94555 23.96418 292 ft 137 kts 217°
2026-02-19 13:58 37.93644 23.95541 648 ft 177 kts 215°
2026-02-19 13:58 37.92645 23.94711 1981 ft 167 kts 208°
2026-02-19 13:59 37.91651 23.93848 2939 ft 180 kts 211°
2026-02-19 13:59 37.90486 23.93049 3548 ft 206 kts 208°
2026-02-19 13:59 37.89140 23.92155 4146 ft 225 kts 208°
2026-02-19 13:59 37.87721 23.91218 5070 ft 235 kts 209°
2026-02-19 14:00 37.86260 23.90250 6152 ft 239 kts 210°
2026-02-19 14:00 37.83279 23.88260 8201 ft 248 kts 210°
2026-02-19 14:00 37.81740 23.87230 9259 ft 252 kts 211°
2026-02-19 14:01 37.80178 23.86183 10268 ft 257 kts 211°
2026-02-19 14:01 37.78495 23.85343 11162 ft 267 kts 193°
2026-02-19 14:01 37.76610 23.85363 12088 ft 278 kts 173°
2026-02-19 14:01 37.74745 23.86216 12828 ft 298 kts 154°
2026-02-19 14:02 37.73125 23.88063 13058 ft 335 kts 127°
2026-02-19 14:02 37.71934 23.90741 13313 ft 364 kts 119°
2026-02-19 14:02 37.70761 23.93703 13511 ft 390 kts 118°
2026-02-19 14:02 37.69509 23.96822 13989 ft 405 kts 119°
2026-02-19 14:03 37.68221 23.99971 14645 ft 411 kts 119°
2026-02-19 14:03 37.66888 24.03184 15397 ft 414 kts 119°
2026-02-19 14:03 37.65537 24.06418 16145 ft 418 kts 119°
2026-02-19 14:03 37.64168 24.09688 16828 ft 423 kts 119°
2026-02-19 14:04 37.59962 24.19734 18809 ft 438 kts 118°
2026-02-19 14:04 37.58530 24.23154 19415 ft 442 kts 118°
2026-02-19 14:05 37.57107 24.26547 20019 ft 445 kts 118°
2026-02-19 14:05 37.55662 24.30023 20623 ft 449 kts 116°
2026-02-19 14:05 37.54486 24.33698 21178 ft 454 kts 109°
2026-02-19 14:05 37.53500 24.37493 21749 ft 458 kts 107°
2026-02-19 14:06 37.52565 24.41349 22304 ft 462 kts 107°
2026-02-19 14:06 37.51623 24.45249 22858 ft 466 kts 107°
2026-02-19 14:06 37.50654 24.49173 23401 ft 471 kts 108°
2026-02-19 14:06 37.49652 24.53128 23910 ft 474 kts 108°
2026-02-19 14:07 37.48631 24.57082 24377 ft 478 kts 108°
2026-02-19 14:07 37.47599 24.61032 24859 ft 480 kts 108°
2026-02-19 14:07 37.46546 24.65037 25340 ft 482 kts 108°
2026-02-19 14:07 37.45485 24.69066 25797 ft 485 kts 108°
2026-02-19 14:08 37.44418 24.73114 26244 ft 488 kts 108°
2026-02-19 14:08 37.42261 24.81287 27048 ft 495 kts 108°
2026-02-19 14:08 37.41172 24.85412 27186 ft 500 kts 108°
2026-02-19 14:09 37.40091 24.89497 27185 ft 500 kts 108°
2026-02-19 14:09 37.38992 24.93642 27184 ft 498 kts 108°
2026-02-19 14:09 37.37892 24.97789 27183 ft 497 kts 108°
2026-02-19 14:09 37.36797 25.01906 27186 ft 497 kts 108°
2026-02-19 14:10 37.35703 25.06017 27181 ft 492 kts 108°
2026-02-19 14:10 37.34988 25.08697 27173 ft 484 kts 108°
2026-02-19 14:10 37.33923 25.12693 27185 ft 480 kts 108°
2026-02-19 14:10 37.32859 25.16676 27198 ft 481 kts 108°
2026-02-19 14:11 37.31793 25.20667 27198 ft 482 kts 108°
2026-02-19 14:11 37.30721 25.24670 27195 ft 483 kts 108°
2026-02-19 14:11 37.29647 25.28679 27191 ft 484 kts 108°
2026-02-19 14:11 37.28570 25.32694 27189 ft 484 kts 108°
2026-02-19 14:12 37.27484 25.36697 27190 ft 484 kts 109°
2026-02-19 14:12 37.24989 25.44496 27194 ft 483 kts 113°
2026-02-19 14:12 37.23686 25.48391 27189 ft 483 kts 112°
2026-02-19 14:13 37.22400 25.52299 27193 ft 482 kts 112°
2026-02-19 14:13 37.21112 25.56195 27192 ft 482 kts 113°
2026-02-19 14:13 37.19827 25.60059 27192 ft 482 kts 113°
2026-02-19 14:13 37.18532 25.63938 27195 ft 482 kts 113°
2026-02-19 14:14 37.17234 25.67822 27201 ft 482 kts 113°
2026-02-19 14:14 37.15937 25.71698 27204 ft 482 kts 113°
2026-02-19 14:14 37.14642 25.75569 27206 ft 482 kts 113°
2026-02-19 14:14 37.13345 25.79441 27208 ft 482 kts 113°
2026-02-19 14:15 37.12060 25.83324 27209 ft 482 kts 110°
2026-02-19 14:15 37.11323 25.87356 27209 ft 482 kts 94°
2026-02-19 14:15 37.11259 25.91545 27216 ft 481 kts 87°
2026-02-19 14:15 37.11396 25.95738 27211 ft 481 kts 86°
2026-02-19 14:16 37.11585 25.99944 27210 ft 482 kts 85°
2026-02-19 14:16 37.11997 26.08319 27210 ft 482 kts 85°
2026-02-19 14:16 37.12148 26.12526 27203 ft 483 kts 91°
2026-02-19 14:17 37.11628 26.16622 27224 ft 482 kts 106°
2026-02-19 14:17 37.10524 26.20585 27222 ft 482 kts 113°
2026-02-19 14:17 37.09114 26.24406 27217 ft 481 kts 119°
2026-02-19 14:17 37.07354 26.27967 27201 ft 479 kts 129°
2026-02-19 14:18 37.05163 26.31091 27219 ft 476 kts 136°
2026-02-19 14:18 37.02829 26.34035 27210 ft 476 kts 137°
2026-02-19 14:18 37.00474 26.36934 27198 ft 472 kts 137°
2026-02-19 14:18 36.98180 26.39789 27205 ft 468 kts 137°
2026-02-19 14:19 36.95886 26.42702 27213 ft 469 kts 136°
2026-02-19 14:19 36.93615 26.45622 27221 ft 470 kts 136°
2026-02-19 14:19 36.91335 26.48567 27214 ft 471 kts 135°
2026-02-19 14:19 36.89260 26.51732 27208 ft 474 kts 127°
2026-02-19 14:20 36.85032 26.62857 27214 ft 476 kts 113°
2026-02-19 14:20 36.83769 26.66677 27211 ft 475 kts 114°
2026-02-19 14:21 36.82473 26.70477 27211 ft 475 kts 115°
2026-02-19 14:21 36.81167 26.74265 27212 ft 474 kts 115°
2026-02-19 14:21 36.79868 26.78028 27213 ft 474 kts 115°
2026-02-19 14:21 36.78563 26.81808 27213 ft 474 kts 115°
2026-02-19 14:22 36.77263 26.85576 27202 ft 466 kts 115°
2026-02-19 14:22 36.76024 26.89172 27193 ft 450 kts 115°
2026-02-19 14:22 36.74795 26.92734 27203 ft 443 kts 115°
2026-02-19 14:22 36.73574 26.96264 27215 ft 443 kts 115°
2026-02-19 14:23 36.72347 26.99808 26670 ft 450 kts 115°
2026-02-19 14:23 36.71086 27.03443 25467 ft 461 kts 115°
2026-02-19 14:23 36.69805 27.07136 24551 ft 463 kts 115°
2026-02-19 14:23 36.68526 27.10821 23694 ft 462 kts 115°
2026-02-19 14:24 36.67253 27.14481 22768 ft 459 kts 115°
2026-02-19 14:24 36.64749 27.21650 20881 ft 446 kts 115°
2026-02-19 14:24 36.63527 27.25140 20061 ft 432 kts 115°
2026-02-19 14:25 36.62341 27.28526 19274 ft 420 kts 115°
2026-02-19 14:25 36.61189 27.31811 18536 ft 410 kts 115°
2026-02-19 14:25 36.60059 27.35027 17722 ft 401 kts 115°
2026-02-19 14:25 36.58952 27.38176 16974 ft 391 kts 115°
2026-02-19 14:26 36.57888 27.41200 16277 ft 382 kts 115°
2026-02-19 14:26 36.56830 27.44202 15599 ft 375 kts 115°
2026-02-19 14:26 36.55784 27.47167 14936 ft 372 kts 115°
2026-02-19 14:26 36.54750 27.50096 14414 ft 365 kts 115°
2026-02-19 14:27 36.53740 27.52947 14220 ft 363 kts 115°
2026-02-19 14:27 36.52709 27.55849 13982 ft 369 kts 115°
2026-02-19 14:27 36.51682 27.58739 13725 ft 370 kts 115°
2026-02-19 14:27 36.50647 27.61653 13453 ft 367 kts 115°
2026-02-19 14:28 36.49622 27.64536 13244 ft 360 kts 115°
2026-02-19 14:28 36.47717 27.69898 12922 ft 320 kts 115°
2026-02-19 14:28 36.46838 27.72366 12748 ft 304 kts 115°
2026-02-19 14:29 36.45997 27.74725 12430 ft 293 kts 115°
2026-02-19 14:29 36.45183 27.77006 11941 ft 284 kts 115°
2026-02-19 14:29 36.44394 27.79214 11459 ft 275 kts 115°
2026-02-19 14:29 36.43633 27.81341 10979 ft 265 kts 115°
2026-02-19 14:30 36.42893 27.83410 10486 ft 258 kts 115°
2026-02-19 14:30 36.42171 27.85427 9996 ft 252 kts 115°
2026-02-19 14:30 36.41463 27.87402 9459 ft 247 kts 115°
2026-02-19 14:30 36.40778 27.89312 8945 ft 243 kts 115°
2026-02-19 14:31 36.40096 27.91214 8433 ft 239 kts 114°
2026-02-19 14:31 36.39423 27.93089 7927 ft 237 kts 114°
2026-02-19 14:31 36.38755 27.94949 7438 ft 233 kts 113°
2026-02-19 14:31 36.38098 27.96778 6950 ft 231 kts 112°
2026-02-19 14:32 36.37447 27.98589 6460 ft 228 kts 112°
2026-02-19 14:32 36.36176 28.02124 6049 ft 226 kts 112°
2026-02-19 14:32 36.35535 28.03892 5998 ft 224 kts 112°
2026-02-19 14:33 36.34894 28.05647 5998 ft 222 kts 112°
2026-02-19 14:33 36.34248 28.07408 6007 ft 226 kts 112°
2026-02-19 14:33 36.33713 28.09223 5953 ft 223 kts 95°
2026-02-19 14:33 36.33817 28.11157 5475 ft 226 kts 77°
2026-02-19 14:34 36.34115 28.13055 4972 ft 222 kts 75°
2026-02-19 14:34 36.34418 28.14920 4431 ft 219 kts 75°
2026-02-19 14:34 36.34713 28.16735 3928 ft 216 kts 75°
2026-02-19 14:34 36.35009 28.18558 3418 ft 214 kts 75°
2026-02-19 14:35 36.35300 28.20361 2908 ft 213 kts 75°
2026-02-19 14:35 36.35588 28.22167 2556 ft 209 kts 75°
2026-02-19 14:35 36.35853 28.23862 2482 ft 192 kts 75°
2026-02-19 14:35 36.36104 28.25493 2500 ft 193 kts 75°
2026-02-19 14:36 36.36510 28.27074 2506 ft 191 kts 65°
2026-02-19 14:36 36.37444 28.30148 2496 ft 190 kts 65°
2026-02-19 14:36 36.37905 28.31670 2490 ft 191 kts 65°
2026-02-19 14:37 36.38372 28.33218 2484 ft 191 kts 65°
2026-02-19 14:37 36.38830 28.34760 2488 ft 190 kts 65°
2026-02-19 14:37 36.39289 28.36298 2511 ft 190 kts 65°
2026-02-19 14:37 36.39749 28.37835 2489 ft 190 kts 65°
2026-02-19 14:38 36.40343 28.39269 2472 ft 183 kts 39°
2026-02-19 14:38 36.41422 28.39906 2489 ft 171 kts 359°
2026-02-19 14:38 36.42554 28.39569 2507 ft 173 kts 337°
2026-02-19 14:38 36.43676 28.38979 2493 ft 175 kts 335°
2026-02-19 14:39 36.44765 28.38397 2478 ft 165 kts 335°
2026-02-19 14:39 36.45811 28.37841 2478 ft 161 kts 335°
2026-02-19 14:39 36.46817 28.37306 2483 ft 154 kts 334°
2026-02-19 14:39 36.47568 28.36429 2491 ft 150 kts 295°
2026-02-19 14:40 36.48041 28.35247 2450 ft 155 kts 296°
2026-02-19 14:40 36.47678 28.32666 2443 ft 156 kts 253°
2026-02-19 14:40 36.47284 28.31389 2486 ft 161 kts 254°
2026-02-19 14:41 36.46855 28.29949 2532 ft 192 kts 253°
2026-02-19 14:41 36.46397 28.28412 2488 ft 185 kts 253°
2026-02-19 14:41 36.45963 28.26945 2477 ft 178 kts 254°
2026-02-19 14:41 36.45534 28.25490 2415 ft 182 kts 253°
2026-02-19 14:42 36.45108 28.24051 2161 ft 168 kts 253°
2026-02-19 14:42 36.44726 28.22761 1950 ft 150 kts 254°
2026-02-19 14:42 36.44391 28.21626 1804 ft 132 kts 253°
2026-02-19 14:42 36.44094 28.20615 1631 ft 123 kts 253°
2026-02-19 14:43 36.43802 28.19612 1484 ft 124 kts 254°
2026-02-19 14:43 36.43504 28.18594 1346 ft 126 kts 254°
2026-02-19 14:43 36.43204 28.17570 1188 ft 126 kts 255°
2026-02-19 14:43 36.42911 28.16570 1019 ft 121 kts 253°
2026-02-19 14:44 36.42622 28.15584 875 ft 121 kts 252°
2026-02-19 14:44 36.42039 28.13593 569 ft 123 kts 251°
2026-02-19 14:44 36.41745 28.12594 413 ft 124 kts 251°
2026-02-19 14:45 36.41433 28.11603 281 ft 123 kts 250°
2026-02-19 14:45 36.41133 28.10610 156 ft 129 kts 250°
2026-02-19 14:45 36.40798 28.09450 596 ft 148 kts 251°
2026-02-19 14:45 36.40380 28.08156 997 ft 176 kts 249°
2026-02-19 14:46 36.39882 28.06713 1496 ft 186 kts 249°
2026-02-19 14:46 36.39350 28.05202 1658 ft 194 kts 249°
2026-02-19 14:46 36.38787 28.03664 1705 ft 195 kts 247°
2026-02-19 14:46 36.38248 28.02125 1713 ft 193 kts 250°
2026-02-19 14:47 36.37742 28.00636 2230 ft 192 kts 248°
2026-02-19 14:47 36.36833 27.99387 2782 ft 205 kts 212°
2026-02-19 14:47 36.35407 27.98957 2974 ft 220 kts 178°
2026-02-19 14:47 36.33974 27.99589 2988 ft 222 kts 143°
2026-02-19 14:48 36.33069 28.01097 3002 ft 218 kts 107°
2026-02-19 14:48 36.33250 28.04706 3351 ft 206 kts 75°
2026-02-19 14:48 36.33540 28.06471 3871 ft 212 kts 75°
2026-02-19 14:49 36.33832 28.08263 3964 ft 211 kts 75°
2026-02-19 14:49 36.34132 28.10055 3984 ft 214 kts 75°
2026-02-19 14:49 36.34432 28.11852 3981 ft 209 kts 75°
2026-02-19 14:49 36.34710 28.13571 3965 ft 197 kts 75°
2026-02-19 14:50 36.34971 28.15219 3989 ft 193 kts 75°
2026-02-19 14:50 36.35226 28.16829 3990 ft 192 kts 75°
2026-02-19 14:50 36.35487 28.18450 3988 ft 191 kts 75°
2026-02-19 14:50 36.35877 28.20013 4002 ft 188 kts 64°
2026-02-19 14:51 36.36354 28.21528 4002 ft 189 kts 65°
2026-02-19 14:51 36.36846 28.23100 3640 ft 198 kts 65°
2026-02-19 14:51 36.37336 28.24670 3272 ft 198 kts 65°
2026-02-19 14:51 36.37827 28.26261 2874 ft 197 kts 65°
2026-02-19 14:52 36.38312 28.27847 2538 ft 194 kts 65°
2026-02-19 14:52 36.39230 28.30902 2491 ft 186 kts 65°
2026-02-19 14:52 36.39680 28.32416 2509 ft 189 kts 65°
2026-02-19 14:53 36.40146 28.33964 2498 ft 191 kts 65°
2026-02-19 14:53 36.40608 28.35504 2486 ft 189 kts 65°
2026-02-19 14:53 36.41121 28.36964 2470 ft 184 kts 48°
2026-02-19 14:53 36.42108 28.37777 2484 ft 166 kts
2026-02-19 14:54 36.43199 28.37574 2516 ft 159 kts 337°
2026-02-19 14:54 36.44240 28.37045 2507 ft 162 kts 335°
2026-02-19 14:54 36.45276 28.36484 2488 ft 163 kts 328°
2026-02-19 14:54 36.45954 28.35409 2508 ft 162 kts 287°
2026-02-19 14:55 36.46145 28.34020 2488 ft 162 kts 281°
2026-02-19 14:55 36.46284 28.32675 2479 ft 152 kts 281°
2026-02-19 14:55 36.46412 28.31366 2495 ft 153 kts 280°
2026-02-19 14:55 36.46423 28.30022 2495 ft 158 kts 269°
2026-02-19 14:56 36.46281 28.28677 2492 ft 160 kts 265°
2026-02-19 14:56 36.45751 28.26054 2449 ft 155 kts 253°
2026-02-19 14:56 36.45367 28.24815 2259 ft 147 kts 253°
2026-02-19 14:57 36.45028 28.23708 2137 ft 130 kts 255°
2026-02-19 14:57 36.44822 28.23023 2012 ft 125 kts 255°
2026-02-19 14:57 36.44524 28.22026 1875 ft 124 kts 255°
2026-02-19 14:57 36.44224 28.21015 1720 ft 125 kts 253°
2026-02-19 14:58 36.43927 28.20013 1564 ft 122 kts 253°
2026-02-19 14:58 36.43636 28.19025 1404 ft 122 kts 254°
2026-02-19 14:58 36.43343 28.18026 1275 ft 124 kts 254°
2026-02-19 14:58 36.43046 28.17019 1103 ft 123 kts 255°
2026-02-19 14:59 36.42758 28.16038 937 ft 119 kts 253°
2026-02-19 14:59 36.42474 28.15073 801 ft 120 kts 253°
2026-02-19 14:59 36.42184 28.14085 661 ft 122 kts 252°
2026-02-19 14:59 36.41898 28.13120 482 ft 120 kts 251°
2026-02-19 15:00 36.41592 28.12151 335 ft 120 kts 249°
2026-02-19 15:00 36.41008 28.10207 73 ft 122 kts 250°
2026-02-19 15:00 36.40732 28.09275 30 ft 102 kts 250°
2026-02-19 15:01 36.40515 28.08540 27 ft 83 kts 250°
2026-02-19 15:01 36.40327 28.07898 28 ft 80 kts 250°
2026-02-19 15:01 36.40143 28.07269 27 ft 66 kts 250°
2026-02-19 15:01 36.40048 28.06958 28 ft 23 kts 237°
2026-02-19 15:02 36.39916 28.06957 27 ft 13 kts 160°
2026-02-19 15:02 36.39896 28.07050 27 ft 13 kts 71°
2026-02-19 15:02 36.39924 28.07153 27 ft 12 kts 71°
2026-02-19 15:02 36.39956 28.07252 26 ft 12 kts 68°
2026-02-19 15:03 36.39984 28.07350 27 ft 12 kts 72°
2026-02-19 15:03 36.40017 28.07464 27 ft 16 kts 70°
2026-02-19 15:03 36.40055 28.07597 27 ft 20 kts 70°
2026-02-19 15:03 36.40114 28.07801 27 ft 30 kts 70°
2026-02-19 15:04 36.40195 28.08073 27 ft 35 kts 70°
2026-02-19 15:04 36.40345 28.08582 27 ft 19 kts 70°
2026-02-19 15:04 36.40388 28.08734 27 ft 18 kts 73°
2026-02-19 15:05 36.40398 28.08886 27 ft 18 kts 95°
2026-02-19 15:05 36.40409 28.09034 27 ft 17 kts 71°
2026-02-19 15:05 36.40448 28.09171 27 ft 17 kts 68°
2026-02-19 15:05 36.40485 28.09295 27 ft 10 kts 70°
2026-02-19 15:06 36.40518 28.09355 27 ft 6 kts 46°
2026-02-19 15:06 36.40554 28.09385 27 ft 6 kts 34°
2026-02-19 15:06 36.40564 28.09422 27 ft 5 kts 111°
2026-02-19 15:06 36.40538 28.09444 27 ft 5 kts 159°
2026-02-19 15:07 36.40509 28.09457 27 ft 5 kts 160°
2026-02-19 15:07 36.40491 28.09466 27 ft 1 kts 160°
2026-02-19 15:07 36.40477 28.09472 27 ft 3 kts 160°
2026-02-19 15:07 36.40461 28.09479 27 ft 2 kts 160°
2026-02-19 15:08 36.40459 28.09480 27 ft 0 kts 160°